Flag for Germany Weather past 2 weeks in Dinslaken, North Rhine-Westphalia, Germany

Now
53 °F

Low clouds.


Feels Like: 53 °F
Forecast: 46 / 59 °F
Wind: 3 mph from Southwest

Location: Essen

Current Time: Oct 25, 2014 at 2:53:50 PM

Latest Report: Oct 25, 2014 at 2:00 PM


Visibility: 1 mi

Pressure: 30.11 "Hg

Humidity: 100%

Dew point: 53 °F

Location of DinslakenLocation

Historic Weather in Dinslaken — Graph

°F

Dinslaken temperature yesterday

Maximum temperature yesterday: 54 °F (at 4:00 PM)
Minimum temperature yesterday: 51 °F (at 7:00 AM)
Average temperature yesterday: 52 °F

Past Weeks' High & Low Weather Summary

 TemperatureHumidityPressure
High73 °F (Oct 19, 3:00 PM)100% (Oct 11, 7:00 AM)30.24 "Hg (Oct 11, 7:00 AM)
Low44 °F (Oct 22, 9:00 AM)55% (Oct 14, 2:00 PM)29.47 "Hg (Oct 21, 4:00 PM)
Average56 °F85%29.92 "Hg
* Reported Oct 10 2:00 PM — Oct 25 2:00 PM, Dinslaken, Weather by CustomWeather, © 2014

Note: Actual official high and low records may vary slightly from our data, if they occured in-between our weather recording intervals... More about our weather records

Advertising

Dinslaken weather history for previous 24 hours

 ConditionsComfort  
Time TempWeatherWind HumidityBarometerVisibility
2:00 PM
Oct 25
53 °FLow clouds.3 mph100%30.11 "Hg1 mi
1:00 PM52 °FFog.2 mph100%30.11 "Hg1 mi
12:00 PM52 °FFog.2 mph100%30.10 "Hg2 mi
11:00 AM51 °FFog.2 mph100%30.09 "Hg2 mi
10:00 AM51 °FFog.3 mph100%30.08 "Hg1 mi
9:00 AM50 °FLow clouds.3 mph100%30.07 "Hg1 mi
8:00 AM50 °FLight freezing rain. Low clouds.2 mph100%30.05 "Hg1 mi
7:00 AM50 °FDrizzle. Low clouds.2 mph100%30.04 "Hg1 mi
6:00 AM51 °FLow clouds.3 mph97%30.04 "Hg5 mi
5:00 AM50 °FLow clouds.3 mph99%30.03 "Hg4 mi
4:00 AM50 °FDrizzle. Low clouds.3 mph98%30.04 "Hg1 mi
3:00 AM51 °FLight freezing rain. Low clouds.3 mph90%30.05 "Hg2 mi
2:00 AM52 °FOvercast.3 mph80%30.05 "Hg11 mi
1:00 AM52 °FOvercast.3 mph80%30.05 "Hg12 mi
12:00 AM53 °FOvercast.3 mph78%30.06 "Hg12 mi
11:00 PM
Oct 24
53 °FOvercast.5 mph77%30.06 "Hg14 mi
10:00 PM53 °FOvercast.5 mph77%30.06 "Hg14 mi
9:00 PM53 °FOvercast.5 mph77%30.06 "Hg14 mi
8:00 PM53 °FOvercast.3 mph79%30.06 "Hg12 mi
7:00 PM54 °FOvercast.3 mph78%30.06 "Hg12 mi
6:00 PM54 °FOvercast.3 mph77%30.07 "Hg14 mi
5:00 PM54 °FOvercast.3 mph75%30.08 "Hg18 mi
4:00 PM54 °FOvercast.5 mph74%30.10 "Hg25 mi
3:00 PM54 °FOvercast.5 mph78%30.11 "Hg28 mi
2:00 PM53 °FOvercast.5 mph77%30.13 "Hg25 mi
Weather by CustomWeather, © 2014

See weather overviewHow to use our weather pages